Regional Weather Roundup
Issued by NWS

Home | Current Version | Previous Version | Graphics & Text | Print | Product List | Glossary On
Versions: 1 2 3 4 5 6 7 8 9 10 11 12 13 14 15 16 17 18 19 20 21 22 23 24 25 26 27 28 29 30 31 32 33 34 35 36 37 38 39 40 41 42 43 44 45 46 47 48 49 50
471
ASUS43 KMPX 211310
RWRMN
WEATHER ROUNDUP FOR MINNESOTA
NATIONAL WEATHER SERVICE TWIN CITIES/CHANHASSEN MN
800 AM CDT THU MAY 21 2015


NOTE: "FAIR" INDICATES FEW OR NO CLOUDS BELOW 12,000 FEET WITH NO
SIGNIFICANT WEATHER AND/OR OBSTRUCTIONS TO VISIBILITY. N/A MEANS
CURRENT SKY AND/OR WEATHER CONDITIONS ARE NOT AVAILABLE.

MNZ060>063-068>070-211400-
   Twin Cities Metro

CITY           SKY/WX    TMP DP  RH WIND       PRES   REMARKS
TWIN CITIES    MOSUNNY   50  37  61 SW8       30.04F
ST PAUL        MOSUNNY   49  38  65 CALM      30.05F
CRYSTAL        MOSUNNY   54  39  57 SW7       30.02F
BLAINE         MOSUNNY   52  39  62 SW6       30.02F
LAKEVILLE      MOSUNNY   48  39  71 SW6       30.05F
EDEN PRAIRIE   MOSUNNY   47  38  71 SW7       30.04F
SOUTH ST PAUL  MOSUNNY   51  38  60 SW3       30.04F
LAKE ELMO      FAIR      50  39  66 SW5       30.04F
$$
MNZ001>005-007-008-013>017-022>024-027-028-211400-
   Northwest Minnesota

CITY           SKY/WX    TMP DP  RH WIND       PRES   REMARKS
BEMIDJI        SUNNY     50  37  61 N8        30.07R
HALLOCK        SUNNY     45  39  81 N8        30.14S
ROSEAU         SUNNY     48  39  71 N7        30.12R
WARROAD        SUNNY     48  37  66 N8        30.12R
THIEF RVR FALL SUNNY     48  36  61 N8        30.13R
CROOKSTON      SUNNY     46  39  76 N8        30.14R
FOSSTON        SUNNY     46  36  66 N6        30.11R
DETROIT LAKES  SUNNY     46  39  76 N10       30.11R
MOORHEAD       SUNNY     48  39  71 N13       30.13R
PARK RAPIDS    SUNNY     50  35  56 N8        30.06R
MAHNOMEN       FAIR      46  37  70 N10       30.10R
$$
MNZ006-009>011-018-025>026-211400-
   North Central Minnesota

CITY           SKY/WX    TMP DP  RH WIND       PRES   REMARKS
BAUDETTE       SUNNY     50  37  61 N9        30.10R
FLAG ISLAND    SUNNY     48  34  57 N7        30.10R
INTL FALLS     SUNNY     50  34  54 N8        30.07R
WASKISH        SUNNY     50  36  57 N5        30.09R
BIG FORK       SUNNY     52  34  50 N6        30.05R
LONGVILLE      SUNNY     52  37  58 NW6       30.04R
GRAND RAPIDS   SUNNY     50  34  53 N7        30.03R
CRANE LAKE     SUNNY     48  32  53 CALM      30.06R
COOK           SUNNY     52  34  50 N6        30.04R
WALKER         FAIR      49  35  58 N5        30.06R
$$
MNZ012-019>021-037-211400-
   Northeast Minnesota

CITY           SKY/WX    TMP DP  RH WIND       PRES   REMARKS
DULUTH         SUNNY     53  35  50 N10       29.97R
ELY            SUNNY     48  32  53 NE6       30.01R
HIBBING        SUNNY     52  35  52 N9        30.01R
EVELETH        SUNNY     52  36  54 NE12      30.02R
DULUTH HARBOR  SUNNY     55  41  58 SE7       29.98R
TWO HARBORS    SUNNY     57  39  51 E12       29.97R
SILVER BAY     SUNNY     55  36  47 N7        29.97R
GRAND MARAIS     N/A     48  33  56 VRB5      29.98R
G MARAIS ARPRT SUNNY     48  27  43 N13       29.98R
$$
MNZ029>031-032-039>041-046>048-054>057-064-211400-
   West Central Minnesota

CITY           SKY/WX    TMP DP  RH WIND       PRES   REMARKS
FERGUS FALLS   SUNNY     48  39  71 N9G16     30.12R
WHEATON        SUNNY     52  39  62 NW12      30.15R
MORRIS         SUNNY     52  41  66 NW16      30.10R
ALEXANDRIA     SUNNY     52  39  61 NW12      30.09R
ELBOW LAKE     FAIR      49  42  75 NW13      30.11R
WADENA         SUNNY     48  37  66 NW8       30.06R
GLENWOOD       SUNNY     50  43  76 W8        30.08R
APPLETON       SUNNY     55  39  54 NW15      30.10R
BENSON         SUNNY     54  41  62 N10       30.09S
ORTONVILLE     SUNNY     55  37  50 NW14G20   30.11R
MADISON        SUNNY     55  36  47 NW17G25   30.11R
WILLMAR        FAIR      52  43  71 NW16      30.08S
$$
MNZ033>034-036-042>043-049>051-058-059-211400-
   Central Minnesota

CITY           SKY/WX    TMP DP  RH WIND       PRES   REMARKS
ST CLOUD       SUNNY     53  41  63 NW12      30.03R
SAUK CENTRE    FAIR      51  41  69 NW8       30.06R
PAYNESVILLE    SUNNY     48  41  76 W8        30.06S
AITKIN         SUNNY     54  39  58 NW5       30.00R
PINE RIVER     SUNNY     52  39  62 N7        30.07R
BRAINERD       SUNNY     52  37  56 NW9       30.03R
STAPLES        SUNNY     52  36  54 NW7       30.05R
LONG PRAIRIE   FAIR      50  39  66 W8        30.06R
LITTLE FALLS   SUNNY     52  37  58 NW7       30.04R
LITCHFIELD     SUNNY     54  41  62 W12G17    30.06R
BUFFALO        MOSUNNY   51  40  64 W10       30.04S
MAPLE LAKE     SUNNY     53  42  66 W8        30.05R
$$
MNZ037-044-045-052-053-211400-
   East Central Minnesota

CITY           SKY/WX    TMP DP  RH WIND       PRES   REMARKS
PRINCETON      SUNNY     54  41  62 W9        30.02S
MORA           SUNNY     50  37  62 W3        30.02S
CAMBRIDGE      SUNNY     54  39  58 W5        30.00R
RUSH CITY      SUNNY     53  40  61 W3        30.01S
MOOSE LAKE     SUNNY     54  37  54 NW7       29.98R
HINCKLEY       FAIR      50  41  71 SW3       30.00S
CLOQUET        SUNNY     54  34  47 NW9       29.98S
MCGREGOR       SUNNY     52  39  62 NW7       30.01R
$$
MNZ071>073-080-081-089-090-097-098-211400-
   Southwest Minnesota

CITY           SKY/WX    TMP DP  RH WIND       PRES   REMARKS
MONTEVIDEO     SUNNY     55  39  54 N12       30.11R
GRANITE FALLS  SUNNY     55  37  50 W18       30.11R
CANBY          SUNNY     56  35  44 W17G23    30.14R
MARSHALL       SUNNY     57  32  38 NW20      30.11R
REDWOOD FALLS  SUNNY     55  37  50 W14       30.09R
OLIVIA         SUNNY     52  36  54 W13G20    30.07R
PIPESTONE      SUNNY     46  34  61 W9        30.17R
WINDOM         SUNNY     54  36  50 W13       30.12S
WORTHINGTON    SUNNY     52  34  50 W18G24    30.15F
JACKSON        SUNNY     52  32  46 W15       30.13S
TRACY          SUNNY     57  34  41 W15G22    30.12S
SLAYTON        SUNNY     51  33  49 W17       30.15S
$$
MNZ065>067-074>077-082>085-091>093-211400-
   South Central Minnesota

CITY           SKY/WX    TMP DP  RH WIND       PRES   REMARKS
MANKATO        SUNNY     52  37  58 W10       30.09S
NEW ULM        SUNNY     52  36  54 W14       30.08F
ST JAMES       SUNNY     55  36  47 W15       30.11S
FAIRMONT       MOSUNNY   54  34  47 W14       30.11S
GLENCOE        SUNNY     52  42  67 W7        30.05S
FARIBAULT      MOSUNNY   50  41  71 SW6       30.08S
OWATONNA       SUNNY     48  39  71 SW8       30.09S
WASECA         SUNNY     46  37  71 SW10      30.10S
ALBERT LEA     SUNNY     48  39  71 W7        30.10F
$$
MNZ078>079-086>088-094>096-211400-
   Southeast Minnesota

CITY           SKY/WX    TMP DP  RH WIND       PRES   REMARKS
ROCHESTER      SUNNY     49  40  71 W13       30.09S
RED WING       SUNNY     50  41  71 W3        30.05F
STANTON        SUNNY     50  40  68 SW8       30.06S
DODGE CENTER   SUNNY     48  39  71 W15       30.08S
WINONA         SUNNY     48  41  76 CALM      30.08S
AUSTIN         SUNNY     48  39  71 W9        30.10S
PRESTON        SUNNY     47  39  75 W10       30.09F
$$
ABBREVIATIONS USED IN REMARKS
   TC - TEMPERATURES IN CELSIUS
  WCI - WIND CHILL INDEX
   HX - HEAT INDEX
  VSB - VISIBILITY
$$



USA.gov is the U.S. government's official web portal to all federal, state and local government web resources and services.